Find Starlink 34782

NORAD ID: 65358 Int'l Des: 2025-190 Owner: SPXS Country: US Constellation: starlink operational
LEOCIRCULAR

現在のビュー

3D地球を読み込み中...

About Starlink 34782

Starlink 34782 (NORAD 65358) is a starlink constellation satellite (v2 mini) launched Aug 28, 2025 by SPXS of US. It operates in LEO, CIRCULAR orbit with a mass of 575.00 kg.

次回通過

Passes for default location (London). Set your location on the main map for personalized predictions.

高度履歴

Loading altitude history...

軌道要素

1 65358U 25190H 26265.49001237 .00014271 00000-0 43264-3 0 9998
2 65358 53.1587 332.1236 0001050 86.8225 273.2897 15.34403158 59911
Epoch: Sep 22, 2026 • Age: 9 hours

現在のステータス

高度 468.5 km
遠地点 / 近地点 N/A
速度 7.63 km/s
衛星直下点 -19.73°S, 142.76°W
打ち上げ日 Aug 28, 2025
運用期間 1 year
タイプ internet

技術仕様

分類 Payload
質量 575.00 kg
乾燥質量 530.00 kg
長さ 0.30 m
スパン 29.00 m
形状 ? Box + pan
製造者 SPXS
バスタイプ Starlink V2MO
フェーズステータス In Orbit
所有者/国 SPXS/US

Most Searched